Explorer - northwestern half: Past 24 Hour Conditions

 

West Dixon Entrance - 46205

02:00 PM PST 18 November 2017Buoy position: 54.17N 134.28W
Disclaimer

This table is a summary of hourly weather conditions for the past 24 hours.
Please note that these observations might not always be representative of weather conditions over their associated marine area.

Date / Time
(PST)
Wind(knots) Wave height(m) Wave period(s) Pressure(kPa) Air tempC) Water tempC)
18 November 2017
14:00 N 2 gust 2 2.4 12.0 100.2 7 9
13:00 W 2 gust 6 2.3 11.0 100.2 8 9
12:00 W 4 gust 8 2.4 11.0 100.3 7 9
11:00 S 2 gust 4 2.5 8.0 100.3 7 9
10:00 SE 6 gust 8 2.6 10.0 100.4 6 9
9:00 WSW 6 gust 8 2.9 10.0 100.4 8 9
8:00 SSW 8 gust 10 2.9 8.0 100.4 8 9
7:00 S 6 gust 8 3.0 11.0 100.4 7 9
6:00 SSW 10 gust 12 3.6 10.0 100.4 7 9
5:00 SW 10 gust 16 3.6 10.0 100.4 7 9
4:00 WSW 14 gust 18 3.5 11.0 100.4 7 9
3:00 SW 16 gust 19 3.4 10.0 100.3 8 9
2:00 WSW 16 gust 19 3.3 10.0 100.3 8 9
1:00 SW 19 gust 23 3.3 10.0 100.2 8 9
0:00 SW 19 gust 23 3.7 10.0 100.2 8 9
17 November 2017
23:00 WSW 21 gust 25 3.7 11.0 100.1 8 9
22:00 SW 21 gust 25 3.9 10.0 100.1 8 9
21:00 WSW 21 gust 25 4.2 10.0 100.0 8 9
20:00 SW 19 gust 25 4.1 10.0 99.9 7 9
19:00 SW 23 gust 31 3.9 10.0 99.8 8 9
18:00 WSW 23 gust 29 4.0 9.0 99.8 7 9
17:00 SW 25 gust 31 4.2 8.0 99.8 8 9
16:00 SW 23 gust 29 3.4 8.0 99.7 8 9
15:00 SSW 23 gust 29 3.2 8.0 99.7 8 9
14:00 SW 27 gust 39 3.1 8.0 99.7 8 9

Zoom-in to make a selection

Map of Pacific - North Coast marine weather areas Middle Nomad - 46004 South Nomad - 46036 Dixon Entrance Central - 46145 South Moresby - 46147 Nanakwa Shoal - 46181 North Hecate Strait - 46183 North Nomad - 46184 South Hecate Strait - 46185 West Sea Otter - 46204 West Dixon Entrance - 46205 East Dellwood - 46207 West Moresby - 46208 Sartine Island Cape St.James Kindakun Rocks Langara Island Masset Municipal Airport Rose Spit Sandspit Airport Bella Bella Airport Bella Coola Airport Cathedral Point Cumshewa Island Grey Islet Holland Rock Lucy Islands Lightstation Prince Rupert Airport Bonilla Island
Legend:
buoy Buoy
land station Land Station

Pacific - North Coast Area

Another Region

What we are doing

Date modified: